Regional Weather Roundup
Issued by NWS Grand Forks, ND

Home | Current Version | Previous Version | Text Only | Print | Product List | Glossary Off
Versions: 1 2 3 4 5 6 7 8 9 10 11 12 13 14 15 16 17 18 19 20 21 22 23 24 25 26 27 28 29 30 31 32 33 34 35 36 37 38 39 40 41 42 43 44 45 46 47 48 49 50

000
ASUS43 KFGF 011510
RWRFGF
PRAIRIE TO PINES  WEATHER ROUNDUP
NATIONAL WEATHER SERVICE EASTERN NORTH DAKOTA/GRAND FORKS ND
1000 AM CDT TUE SEP 01 2015

 **SATELLITE DATA USED TO AUGMENT SKY COVER AT AUTOMATED STATIONS**
 *****  WEATHER ACROSS EASTERN NORTH DAKOTA  *****

CITY           SKY/WX    TMP DP  RH WIND       PRES   REMARKS
GRAND FORKS    MOSUNNY   69  54  58 S8        29.86S
GRAND FRKS AFB SUNNY     73  53  49 S7        29.87R
GRAND FRKS NWS   N/A     64 N/A N/A S5          N/A
DEVILS LAKE    SUNNY     72  52  49 SW13      29.86S
FARGO          SUNNY     75  61  61 S6        29.88S
WAHPETON ARPT  SUNNY     73  63  68 SE6       29.89F
$$

 ***** WEATHER ACROSS CENTRAL AND WESTERN NORTH DAKOTA  *****

CITY           SKY/WX    TMP DP  RH WIND       PRES   REMARKS
BISMARCK       SUNNY     66  56  70 E3        29.88F
MINOT          SUNNY     72  53  51 S6        29.83S
JAMESTOWN      SUNNY     70  60  70 S7        29.88S
MINOT AFB      SUNNY     72  54  52 S9        29.82R
GARRISON         N/A     69  56  62 SE5       29.85F
WILLISTON      SUNNY     65  48  54 S3        29.83S
DICKINSON      SUNNY     72  58  61 S13       29.85S
HETTINGER      SUNNY     70  58  65 SE9       29.87F
$$

 *****  OTHER AIRPORT OBSERVATIONS IN OUR AREA  *****

CITY           SKY/WX    TMP DP  RH WIND       PRES   REMARKS
WALHALLA       FAIR      73  55  53 MISG      29.83S
GRAFTON AIRPOR FAIR      68  57  68 S7        29.86S
VALLEY CITY AR FAIR      68  59  73 S7        29.89S
CANDO          NOT AVBL
CAVALIER APRT  FAIR      70  54  56 SW7       29.83S
GWINNER        FAIR      73  66  78 SE7       29.90R
ROLLA          FAIR      68  48  49 SW8       29.86S
 ***** THE ABOVE OBSERVATIONS ARE NON NWS ARE NOT QUALITY
       CONTROLLED AND MAY MIS-REPORT RAIN FOR SNOW...
$$

  *****  WEATHER ACROSS NORTHERN MINNESOTA  *****

CITY           SKY/WX    TMP DP  RH WIND       PRES   REMARKS
FLAG ISLAND    SUNNY     68  55  64 SW6       29.85S
WARROAD        SUNNY     68  57  68 SW6       29.88S
ROSEAU         SUNNY     70  55  60 SW7       29.88S
HALLOCK        SUNNY     70  54  56 S8        29.85S
THF RVR FALLS  MOSUNNY  N/A N/A N/A S5        29.88S
BAUDETTE       SUNNY     70  56  61 SW6       29.88S
WASKISH        MOSUNNY   64  63  94 CALM      29.90S
CROOKSTON      SUNNY     70  57  64 S6        29.88S
STEPHEN NDAWN    N/A     70  57  64 S7          N/A
GREENBUSH NDAW   N/A     72  54  53 SW5         N/A
$$
  *****  WEATHER ACROSS CENTRAL AND WEST MINNESOTA  *****

CITY           SKY/WX    TMP DP  RH WIND       PRES   REMARKS
FOSSTON        MOSUNNY   70  61  73 S5        29.91S
BEMIDJI        PTSUNNY   66  60  80 S3        29.92S
PARK RAPIDS    PTSUNNY   69  63  81 SE5       29.92F
ELBOW LAKE     FAIR      74  66  77 E7        29.90S
WADENA         PTSUNNY   72  66  83 E5        29.92S
DETROIT LAKES  MOSUNNY   70  63  78 SE7       29.92S
MOORHEAD       SUNNY     72  63  73 SE5       29.89S HAZE
FERGUS FALLS   SUNNY     75  64  69 SE7       29.89S
MORRIS MN      MOSUNNY   75  68  78 E13       29.88F
STAPLES        PTSUNNY   70  63  78 CALM      29.92F
$$
  *****  WEATHER ELSEWHERE ACROSS MINNESOTA  *****

CITY           SKY/WX    TMP DP  RH WIND       PRES   REMARKS
DULUTH         PTSUNNY   74  67  78 N3        29.92S
INTRNTL FALLS  MOSUNNY   66  58  75 CALM      29.90S
ELY            PTSUNNY   70  64  83 CALM      29.92S
CLOQUET        PTSUNNY   73  66  78 CALM      29.92S
WHEATON        SUNNY     73  64  73 E8        29.90F
BRAINERD       PTSUNNY   73  65  75 CALM      29.92F
HIBBING        CLOUDY    71  60  68 CALM      29.93S
ALEXANDRIA     PTSUNNY   74  66  76 E9        29.93F
SAINT CLOUD    CLOUDY    72  69  90 CALM      29.92S
MINNEAPOLIS    PTSUNNY   78  68  71 S3        29.92S
$$

  *****  WEATHER ACROSS SOUTH DAKOTA  *****

CITY           SKY/WX    TMP DP  RH WIND       PRES   REMARKS
SIOUX FALLS    CLOUDY    73  68  84 SE7       29.89F
BROOKINGS      CLOUDY    72  66  83 SE12      29.92F
WATERTOWN      PTSUNNY   74  64  71 E12G18    29.89F
HURON          CLOUDY    73  70  90 S9        29.87R FOG
SISSETON         N/A     75  65  70 S8        29.88F
ABERDEEN       SUNNY     74  66  76 SE9       29.87F
MITCHELL       LGT RAIN  69  67  93 SW12G24   29.91R FOG
PIERRE         SUNNY     68  64  87 SE9       29.87S
MOBRIDGE       SUNNY     72  65  78 SE8       29.85F
RAPID CITY     SUNNY     73  55  53 NW8       29.87F
$$

  *****  SOME WEATHER IN NEARBY STATES *****

CITY           SKY/WX    TMP DP  RH WIND       PRES   REMARKS
GLASGOW MT     SUNNY     62  44  51 SE12      29.78S
GREAT FALLS MT PTSUNNY   68  40  35 SW22G30   29.85R
CHEYENNE WY    SUNNY     72  43  35 W18G24    30.14R
SCOTTSBLUFF NE SUNNY     66  53  63 W6        30.00R
OMAHA NE       PTSUNNY   77  69  76 S12       29.95S
DES MOINES IA  MOSUNNY   79  69  71 SW13      29.98R
DAVENPORT IA   SUNNY     81  72  74 SW9       30.03F
CHICAGO IL     MOSUNNY   79  72  79 VRB3      30.05S
EAU CLAIRE WI  SUNNY     76  70  82 S8        29.95R
LA CROSSE WI   SUNNY     77  71  82 S8        29.96F
$$

  *****  SOME NATIONAL WEATHER *****

CITY           SKY/WX    TMP DP  RH WIND       PRES   REMARKS
LA GUARDIA NY  MOSUNNY   82  62  50 E13       30.06R
RALEIGH NC     MOSUNNY   83  70  64 CALM      30.12S
ATLANTA GA     MOSUNNY   81  69  67 SE5       30.16F
NEW ORLEANS LA PTSUNNY   86  68  54 CALM      30.09R
OKLAHOMA CITY  SUNNY     79  68  69 S14       30.04S
ALBUQUERQUE NM MOSUNNY   73  48  41 S5        30.21R
SALT LAKE CITY PTSUNNY   77  46  33 SE10      29.99R
LOS ANGELES CA CLOUDY    71  60  68 SE10      29.93R
BOISE ID       SUNNY     65  38  36 S5        29.93R
SEATTLE WA     LGT RAIN  62  54  74 S12       29.87F
$$

*** WEATHER ACROSS MANITOBA...SASKATCHEWAN AND ONTARIO ***
                ***ONTARIO***

CITY           SKY/WX    TMP DP  RH WIND       PRES   REMARKS
GERALDTON      PTSUNNY   73  64  73 W8        29.87S
THUNDER BAY    CLOUDY    70  68  94 CALM      29.88R
SIOUX LOOKOUT  MOSUNNY   70  57  64 SW8       29.86S
TORONTO        SUNNY     77  66  69 SW5       30.08S
BIG TROUT LK   PTSUNNY   64  59  82 W10       29.70R
PICKLE LAKE    MOSUNNY   70  57  64 SW9       29.80S
DRYDEN         SUNNY     70  54  56 W7        29.87S
KENORA         MOSUNNY   68  54  60 SW7       29.86S
$$
                *** MANITOBA***

CITY           SKY/WX    TMP DP  RH WIND       PRES   REMARKS
BRANDON        PTSUNNY   64  50  59 SW7       29.82S
DAUPHIN        SUNNY     68  48  49 W13G18    29.74F
ISLAND LAKE    MOSUNNY   64  57  77 S3        29.70S
PILOT MOUND      N/A     66  50  55 S7          N/A
THE PAS        PTSUNNY   64  57  77 VRB2      29.67S
THOMPSON       DRZL/FOG  54  54 100 CALM      29.70S VSB 1/4
WINNIPEG       MOSUNNY   68  52  56 S7        29.82S
GILLAM         CLOUDY    46  45  93 E3        29.73R
$$
                ***SASKATCHEWAN***

CITY           SKY/WX    TMP DP  RH WIND       PRES   REMARKS
ESTEVAN        MOSUNNY   66  45  45 S6        29.81F
KINDERSLEY     MOSUNNY   64  41  42 SW18G25   29.62S
LLOYDMINSTER   MOSUNNY   61  46  59 SW9       29.52S
PRINCE ALBERT  MOSUNNY   61  48  63 S12       29.60S
REGINA         PTSUNNY   59  50  72 SE8       29.76R
YORKTON        SUNNY     63  50  63 SW6       29.75R
N. BATTLEFORD  SUNNY     61  45  55 SW10      29.58R
LA RONGE       NOT AVBL
SASKATOON      MOSUNNY   61  45  55 S16G23    29.63F
SWIFT CURRENT  SUNNY     61  41  48 SW16G22   29.72R
$$
NOTE: THESE ARE AUTOMATED STATIONS WITH LIMITED QUALITY CONTROL
      "FAIR" INDICATES FEW OR NO CLOUDS BELOW 12,000 FEET WITH NO
      SIGNIFICANT WEATHER AND/OR OBSTRUCTIONS TO VISIBILITY.
      SKY/WX - SKY CONDITION AND SIGNIFICANT WEATHER.
      TMP - AIR TEMPERATURE.    DP   - DEWPOINT TEMPERATURE.
      RH  - RELATIVE HUMIDITY.  PRES - PRESSURE.
      HX  - HEAT INDEX.         WCI  - WIND CHILL INDEX.
$


USA.gov is the U.S. government's official web portal to all federal, state and local government web resources and services.